星链-31126 (STARLINK-31126 )

导读

STARLINK-31126是美国SpaceX公司星链(Starlink)星座的卫星,于2023年12月29日发射升空。星链项目是SpaceX打造的全球低轨卫星互联网星座,旨在为全球提供高速宽带互联网接入,尤其覆盖网络基础设施匮乏区域。该卫星入轨后参与星座组网,增强星链系统的通信覆盖能力,推动全球卫星互联网服务的拓展,截至2026年,星链已累计发射超万颗卫星,是目前规模最大的近地轨道卫星星座。

Basic Information
目录编号:
58675
目录名称:
STARLINK-31126
国际标识:
2023-211J
轨道中心:
EARTH
卫星名称:
星链-31126
卫星全名:
星链-31126 (STARLINK-31126 )
卫星状态:
在轨 (已飞行980 天)
发射日期:
2023-12-29 UTC
国别 :
美国 (US)
星等 :
--
Orbit Information
数据来源 国际轨道数据
星历时间: 2026-09-04T03:50:48+0800
7小时前
查看轨道信息
半长轴: 6861.152km
偏心率: 0.0001364
轨道倾角: 43.002°
近地点辐角 272.253°
升交点赤经 158.796°
平近点角 87.816°
近地点: 482.079km
远地点: 483.951km
周期: 94.266分钟
每日圈数: 15.275917
Detailed Information
固有亮度:
5
最大亮度:
0.3
卫星平台:
Starlink v2.0 mini
覆盖范围:
全球
运营商:
太空探索技术公司
运营商所在国:
美国
制造商(研发单位):
太空探索技术公司
制造商所在国:
美国
使用方式:
暂无
Satellite Introduction
星链(Starlink)计划是由太空探索技术公司(SpaceX)提出的一个巨型低轨卫星互联网星座项目,计划在2019年至2024年间在太空搭建由约1.2万颗卫星组成的“星链”网络,其中1584颗将部署在地球上空550千米处的近地轨道,并从2020年开始工作。该卫星仍在工作。
2D Orbit Map
3D Orbit Map
Orbit Altitude Analysis Chart
Orbit Inclination Analysis Chart
Orbit Comprehensive Analysis Chart
View Comprehensive Chart
Conjunction Data List
Event ID Objects TCA Miss Dist (km) Collision Risk Probability Collision Risk Index (CRI) Action
CDM_260904-011505-867506-261623
2026-09-04T
01:15:47+0000
0.211 km
中距离
7.502603E-4 高风险 0.93
CDM_260904-213505-857805-867521
2026-09-04T
21:35:46+0000
2.391 km
极远距离
1.44577E-6 低风险 0.38